| time (UTC) | temp F | wind direction | speed MPH | gust MPH | rain 1hr in | rain 24hr in | rain mn in | humidity % | barometer mb |
| 20260505101553 | 79 | 340 | 0.0 | 2.0 | 0.00 | 0.02 | 0.02 | 91 | 1010.8 |
| 20260505100041 | 80 | 0 | 0.0 | 1.0 | 0.00 | 0.02 | 0.02 | 90 | 1010.7 |
| 20260505094540 | 81 | 0 | 0.0 | 0.0 | 0.00 | 0.02 | 0.02 | 89 | 1010.5 |
| 20260505093043 | 82 | 0 | 0.0 | 1.0 | 0.00 | 0.02 | 0.02 | 87 | 1010.1 |
| 20260505091543 | 82 | 315 | 0.0 | 2.0 | 0.00 | 0.02 | 0.02 | 86 | 1009.8 |
| 20260505090057 | 83 | 222 | 0.0 | 2.0 | 0.00 | 0.02 | 0.02 | 84 | 1009.6 |
| 20260505084548 | 84 | 0 | 1.0 | 2.0 | 0.00 | 0.17 | 0.02 | 82 | 1009.7 |
| 20260505083055 | 84 | 0 | 0.0 | 3.0 | 0.00 | 0.17 | 0.02 | 82 | 1009.5 |
| 20260505081548 | 83 | 0 | 1.0 | 4.0 | 0.00 | 0.17 | 0.02 | 81 | 1009.4 |
| 20260505080046 | 83 | 338 | 0.0 | 4.0 | 0.00 | 0.17 | 0.02 | 85 | 1009.4 |
| 20260505074545 | 82 | 0 | 1.0 | 5.0 | 0.00 | 0.17 | 0.02 | 84 | 1009.4 |
| 20260505073044 | 82 | 300 | 1.0 | 4.0 | 0.00 | 0.17 | 0.02 | 84 | 1009.2 |
| 20260505071540 | 82 | 337 | 1.0 | 4.0 | 0.00 | 0.17 | 0.02 | 85 | 1009.3 |
| 20260505070044 | 81 | 0 | 0.0 | 2.0 | 0.00 | 0.17 | 0.02 | 86 | 1009.6 |
| 20260505064544 | 81 | 0 | 0.0 | 3.0 | 0.01 | 0.17 | 0.02 | 86 | 1009.8 |
| 20260505063045 | 81 | 0 | 0.0 | 2.0 | 0.01 | 0.17 | 0.02 | 83 | 1010.1 |
| 20260505061547 | 80 | 0 | 0.0 | 2.0 | 0.01 | 0.17 | 0.02 | 84 | 1010.4 |
| 20260505060044 | 79 | 334 | 1.0 | 9.0 | 0.01 | 0.17 | 0.02 | 88 | 1010.6 |
| 20260505054545 | 79 | 53 | 3.0 | 10.0 | 0.00 | 0.16 | 0.01 | 81 | 1010.7 |
| 20260505053052 | 88 | 20 | 1.0 | 5.0 | 0.00 | 0.16 | 0.01 | 70 | 1010.5 |
| 20260505051538 | 89 | 296 | 1.0 | 6.0 | 0.00 | 0.16 | 0.01 | 66 | 1010.6 |
| 20260505041539 | 90 | 0 | 1.0 | 4.0 | 0.00 | 0.16 | 0.01 | 64 | 1011.3 |
| 20260505040040 | 87 | 0 | 0.0 | 3.0 | 0.00 | 0.16 | 0.01 | 67 | 1011.6 |
| 20260505034538 | 87 | 0 | 1.0 | 3.0 | 0.00 | 0.16 | 0.01 | 71 | 1011.8 |
| 20260505033102 | 89 | 323 | 1.0 | 3.0 | 0.00 | 0.16 | 0.01 | 64 | 1012.0 |
| 20260505031540 | 88 | 249 | 0.0 | 3.0 | 0.00 | 0.16 | 0.01 | 69 | 1012.0 |
| 20260505030039 | 88 | 0 | 0.0 | 2.0 | 0.00 | 0.16 | 0.01 | 66 | 1012.1 |
| 20260505024538 | 87 | 242 | 2.0 | 6.0 | 0.00 | 0.16 | 0.01 | 66 | 1012.1 |
| 20260505023057 | 88 | 120 | 2.0 | 5.0 | 0.00 | 0.16 | 0.01 | 65 | 1012.2 |
| 20260505021540 | 87 | 355 | 2.0 | 5.0 | 0.00 | 0.16 | 0.01 | 67 | 1012.3 |
| 20260505020046 | 86 | 338 | 1.0 | 3.0 | 0.00 | 0.16 | 0.01 | 71 | 1012.5 |
| 20260505014613 | 86 | 306 | 0.0 | 3.0 | 0.00 | 0.16 | 0.01 | 72 | 1012.6 |
| 20260505013045 | 85 | 0 | 1.0 | 4.0 | 0.00 | 0.16 | 0.01 | 68 | 1012.6 |
| 20260505011544 | 86 | 175 | 0.0 | 3.0 | 0.00 | 0.16 | 0.01 | 70 | 1012.8 |
| 20260505010043 | 87 | 235 | 0.0 | 3.0 | 0.00 | 0.16 | 0.01 | 71 | 1012.8 |
| 20260505004546 | 85 | 0 | 0.0 | 3.0 | 0.00 | 0.16 | 0.01 | 76 | 1013.0 |
| 20260505003039 | 85 | 306 | 1.0 | 3.0 | 0.00 | 0.16 | 0.01 | 73 | 1012.9 |
| 20260505001545 | 85 | 274 | 0.0 | 2.0 | 0.00 | 0.16 | 0.01 | 77 | 1013.0 |
| 20260505000047 | 83 | 0 | 1.0 | 2.0 | 0.00 | 0.16 | 0.01 | 76 | 1013.0 |
| 20260504234608 | 81 | 324 | 0.0 | 2.0 | 0.00 | 0.16 | 0.01 | 77 | 1012.9 |
| 20260504233050 | 81 | 0 | 0.0 | 2.0 | 0.00 | 0.16 | 0.01 | 78 | 1013.0 |
| 20260504231550 | 80 | 0 | 0.0 | 2.0 | 0.00 | 0.16 | 0.01 | 77 | 1012.8 |
| 20260504230039 | 79 | 13 | 0.0 | 3.0 | 0.00 | 0.16 | 0.01 | 79 | 1012.8 |
| 20260504224545 | 77 | 35 | 1.0 | 4.0 | 0.00 | 0.16 | 0.01 | 82 | 1012.6 |
| 20260504223041 | 74 | 36 | 0.0 | 1.0 | 0.00 | 0.16 | 0.01 | 92 | 1012.7 |
| 20260504221539 | 73 | 0 | 0.0 | 1.0 | 0.00 | 0.16 | 0.01 | 94 | 1012.5 |
| 20260504220053 | 73 | 0 | 0.0 | 1.0 | 0.00 | 0.16 | 0.01 | 94 | 1012.4 |
| 20260504214541 | 72 | 0 | 0.0 | 2.0 | 0.00 | 0.16 | 0.01 | 94 | 1012.3 |
| 20260504213051 | 73 | 0 | 0.0 | 0.0 | 0.00 | 0.16 | 0.01 | 94 | 1012.3 |
| 20260504211547 | 73 | 0 | 0.0 | 0.0 | 0.00 | 0.16 | 0.01 | 94 | 1012.3 |
| 20260504210052 | 73 | 0 | 0.0 | 0.0 | 0.00 | 0.16 | 0.01 | 95 | 1012.3 |
| 20260504204618 | 73 | 0 | 0.0 | 0.0 | 0.00 | 0.16 | 0.01 | 95 | 1012.0 |
| 20260504203047 | 74 | 0 | 0.0 | 0.0 | 0.00 | 0.16 | 0.01 | 94 | 1011.9 |
| 20260504201545 | 74 | 0 | 0.0 | 0.0 | 0.00 | 0.16 | 0.01 | 95 | 1011.8 |
| 20260504200050 | 74 | 0 | 0.0 | 0.0 | 0.00 | 0.16 | 0.01 | 95 | 1011.8 |
| 20260504194548 | 74 | 0 | 0.0 | 0.0 | 0.00 | 0.16 | 0.01 | 95 | 1011.7 |